Temp
18 18 18 17 17 17 17 17 16 16 16 15 15 15 15 15 15 15 15 15 15 15 15 15 15 15 15 15 15 15 15 14 14 14 14 15 15 15 15 15 15 15 15 15 15 15 15 15 15 14 14 14 14 14 14 14 14 13 13 13 12 12 12 12 12 11 11 11 11
18 18 18 18 17 17 17 17 16 16 16 15 15 15 15 15 15 15 15 15 15 15 15 15 15 15 15 15 15 15 15 14 14 14 14 14 15 15 15 15 15 15 15 15 15 15 15 15 14 14 13 13 13 13 13 13 13 13 13 12 12 12 12 12 11 11 11 11 11
18 18 18 18 17 17 17 17 16 16 16 15 15 15 15 15 15 15 15 15 15 15 15 15 15 15 15 15 15 15 15 15 14 14 14 14 14 15 15 15 15 15 15 15 15 15 14 14 14 13 13 13 13 13 13 13 12 12 12 12 12 12 11 11 11 11 11 11 10
18 18 18 18 17 17 17 17 16 16 16 15 15 15 15 15 16 16 15 15 15 15 15 15 15 15 15 15 15 15 15 15 14 14 14 14 14 14 14 15 15 15 14 14 14 14 14 14 13 13 13 13 13 13 12 12 12 12 12 12 11 11 11 11 11 11 11 10 10
18 18 18 18 17 17 17 17 16 16 16 15 15 15 15 15 16 15 15 15 15 15 15 15 15 15 15 15 15 15 15 15 14 14 14 14 14 14 14 14 14 14 14 13 13 13 13 13 13 12 12 12 12 12 12 12 12 11 11 11 11 11 11 11 11 10 10 10 9
18 18 18 17 17 17 17 17 16 16 16 16 15 15 15 15 15 15 15 15 15 15 15 15 15 15 15 15 15 15 15 14 14 14 14 14 14 13 13 13 13 13 13 13 13 13 13 13 12 12 12 12 12 12 12 11 11 11 11 11 11 11 11 11 10 10 10 9 9
18 18 18 17 17 17 17 16 16 16 16 16 16 16 16 16 15 15 15 15 15 15 15 15 15 15 15 15 15 15 14 14 14 14 14 14 13 13 13 13 13 13 13 13 13 13 12 12 12 12 12 12 12 12 11 11 11 11 11 11 10 10 10 10 9 9 9 9 8
18 18 18 17 17 17 17 16 16 16 16 16 16 16 16 16 16 16 15 15 15 15 15 15 15 15 15 15 15 15 14 14 14 14 14 13 13 13 13 13 13 13 13 13 13 12 12 12 12 12 12 12 12 11 11 11 11 11 11 10 10 9 9 9 9 9 9 8 7
18 18 17 17 17 17 17 16 16 16 16 16 16 16 16 16 16 16 15 15 15 15 15 15 15 15 15 15 15 14 14 14 14 13 13 13 13 13 13 13 13 13 13 12 12 12 12 12 12 12 12 12 11 11 11 11 11 11 10 10 9 9 9 8 8 8 7 6 6
18 17 17 17 17 17 16 16 16 16 16 16 16 16 16 16 16 15 15 15 15 15 15 15 15 15 15 15 15 14 14 14 13 13 13 13 13 13 13 13 13 13 12 12 12 12 12 12 12 12 12 11 11 11 10 10 10 10 10 9 8 8 7 7 7 6 6 6 6
17 17 17 17 17 16 16 16 16 16 16 16 16 16 16 16 16 15 15 15 15 15 15 15 15 15 15 15 14 14 14 13 13 13 13 13 13 13 13 13 13 13 12 12 12 12 12 12 12 12 11 11 11 10 10 10 10 10 9 8 7 7 6 6 6 6 6 6 5
17 17 17 17 16 16 16 16 16 16 16 16 16 16 16 15 15 15 15 15 15 15 15 15 15 15 15 14 14 14 13 13 13 13 13 13 13 13 13 13 13 12 12 12 12 12 12 12 12 11 11 10 10 10 9 9 9 9 8 7 6 6 6 6 6 5 5 5 5
17 17 17 16 16 16 16 16 15 16 16 16 16 15 15 15 15 15 15 15 15 15 15 15 15 14 14 14 14 14 13 13 13 13 13 13 13 13 12 12 12 12 12 12 12 12 12 12 11 11 11 10 9 9 9 9 8 8 7 6 6 5 5 5 5 5 5 5 5
17 16 16 16 16 16 16 15 15 15 15 15 15 15 15 15 15 15 15 15 15 15 14 14 14 14 14 14 14 14 13 13 13 13 13 13 12 12 12 12 12 12 12 12 12 12 12 11 11 11 10 10 9 8 8 8 7 7 6 6 5 5 5 5 5 4 4 4 4
16 16 16 16 16 15 15 15 15 15 15 15 15 15 15 15 15 15 15 15 14 14 14 14 14 14 14 14 14 13 13 13 13 13 12 12 12 12 12 12 12 12 12 11 11 11 11 11 10 10 10 9 8 8 7 7 7 6 5 5 5 5 4 4 4 4 4 4 4
16 16 16 16 15 15 15 15 15 15 15 15 15 14 14 14 14 14 14 14 14 14 14 13 13 13 13 13 13 13 13 13 13 13 12 12 12 12 12 12 12 12 11 11 11 11 10 10 10 9 9 8 8 7 7 6 6 5 5 5 4 4 4 4 3 3 4 4 3
16 16 16 15 15 15 15 15 15 15 15 14 14 14 14 14 14 14 14 14 13 13 13 13 13 13 13 13 13 13 13 13 12 12 12 12 12 12 12 12 11 11 11 11 11 10 10 9 9 9 8 8 7 7 6 6 6 5 5 5 4 4 4 4 4 3 3 3 3
16 15 15 16 15 15 15 15 15 15 14 14 14 14 14 13 13 13 13 13 13 13 13 13 13 13 13 13 12 12 12 12 12 12 12 12 11 11 11 11 11 11 11 10 10 10 9 9 8 8 8 7 7 6 6 6 5 5 5 5 4 4 4 4 3 3 3 3 3
15 15 16 16 15 15 15 15 15 14 14 14 14 13 13 13 13 13 13 13 13 13 13 13 12 12 12 12 12 12 12 12 11 11 11 11 11 11 11 11 10 10 10 10 10 9 9 8 8 8 7 7 7 6 6 6 5 5 4 4 4 3 3 3 3 3 3 3 2
15 15 15 16 15 15 15 15 14 14 13 13 13 13 13 13 13 13 13 12 13 13 13 13 12 12 12 12 11 11 11 11 11 11 11 11 11 10 10 10 10 10 10 9 9 9 8 8 8 7 7 7 6 6 6 5 5 4 4 4 3 3 3 3 3 2 2 2 2
15 16 16 16 15 15 14 14 13 13 13 13 13 13 12 12 12 12 12 12 12 12 12 12 12 12 11 11 11 10 10 10 10 10 10 10 10 10 10 10 9 9 9 9 8 8 8 8 7 7 7 7 6 6 5 5 4 4 4 3 3 3 3 2 2 2 1 1 1
15 16 15 15 14 14 13 13 13 13 13 13 12 12 12 12 12 12 12 12 12 12 12 11 11 11 11 11 10 10 10 10 10 10 10 9 9 9 9 9 9 9 9 8 8 8 8 7 7 7 7 6 6 5 5 4 4 4 3 3 3 2 2 2 2 1 1 1 1
15 15 15 14 13 13 13 13 13 13 12 12 12 12 12 12 12 11 11 11 11 11 11 11 10 10 10 10 10 10 10 10 9 9 9 9 9 9 9 9 9 9 8 8 8 8 7 7 7 7 6 6 5 5 4 4 4 3 3 3 3 2 2 2 2 1 1 1 1
14 14 13 13 13 13 12 12 12 12 12 12 12 12 11 11 11 11 11 11 11 10 10 10 10 10 10 10 10 10 10 10 9 9 9 9 9 9 9 9 9 9 8 8 8 8 7 7 6 6 6 5 5 4 4 4 3 3 3 3 2 2 2 2 2 2 1 1 1
13 13 13 12 12 12 12 12 12 12 12 11 11 11 11 11 11 10 10 10 10 10 9 9 9 9 9 9 9 10 10 10 9 9 8 8 8 8 8 8 8 8 7 7 7 7 7 7 6 6 5 5 4 4 4 3 3 3 3 2 2 2 2 1 1 1 1 1 1
12 12 12 12 12 12 12 12 12 11 11 11 11 10 10 10 10 10 9 9 9 9 8 8 8 8 8 9 9 9 9 9 9 9 8 8 8 8 8 7 7 7 7 6 6 6 6 6 6 6 5 4 4 3 3 3 3 3 3 2 2 2 2 1 1 1 1 1 1
12 12 12 12 12 12 11 11 11 11 11 10 10 10 10 9 9 9 9 8 8 8 8 7 7 8 8 8 8 8 8 8 8 8 8 7 7 7 7 6 6 6 6 6 6 6 6 5 5 5 5 4 4 3 3 3 2 2 2 2 2 2 1 1 1 1 1 1 1
12 12 12 12 11 11 11 11 10 10 10 10 9 9 9 9 8 8 8 8 7 7 7 7 7 7 7 7 7 7 7 7 7 7 7 7 7 6 6 5 5 5 5 5 5 5 5 5 4 4 4 4 4 3 3 3 2 2 2 2 2 1 1 1 1 1 1 0 0
11 11 11 11 11 10 10 10 10 9 9 9 9 8 8 8 8 8 7 7 7 7 7 6 6 7 6 6 6 6 6 6 6 6 6 6 6 5 5 5 4 4 4 4 5 4 4 4 4 4 4 4 3 3 2 2 2 2 2 1 1 1 1 1 1 0 0 0 -0
11 11 11 10 10 10 9 9 9 9 8 8 8 8 8 7 7 7 7 7 7 7 6 6 6 6 6 6 6 6 5 5 5 5 5 5 5 5 4 4 4 4 4 4 4 4 3 3 3 3 3 3 3 2 2 2 2 1 1 1 1 1 1 0 0 0 -0 -0 -1
11 11 10 10 9 9 9 9 8 8 8 7 7 7 7 7 7 7 7 7 6 6 6 6 6 6 5 5 5 5 5 5 5 5 5 5 4 4 4 4 3 3 3 3 3 3 3 3 3 3 3 3 2 2 2 1 1 1 1 0 0 0 0 -0 -0 -0 -1 -1 -1
10 10 10 9 9 8 8 8 8 8 7 7 7 6 6 6 6 6 6 6 6 6 6 5 5 5 5 5 5 5 5 4 4 4 4 4 4 4 3 3 3 3 3 3 3 3 3 3 3 3 3 2 2 2 1 1 1 0 0 -0 -0 -0 -0 -0 -1 -1 -1 -1 -1
10 9 9 9 8 8 8 7 7 7 7 6 6 6 6 6 6 6 6 6 5 5 5 5 5 5 4 4 4 4 4 4 4 4 4 4 4 3 3 3 3 2 2 2 2 2 2 2 2 2 2 2 2 1 1 1 0 -0 -0 -1 -1 -1 -1 -1 -1 -1 -1 -2 -2
9 9 9 8 8 7 7 7 7 6 6 6 6 6 6 5 5 5 5 5 5 5 4 4 4 4 4 4 4 4 4 4 4 4 4 3 3 3 3 2 2 2 2 2 2 2 2 2 2 2 2 2 1 1 1 0 -0 -1 -1 -1 -1 -1 -1 -1 -1 -2 -2 -2 -2
9 9 8 8 7 7 7 6 6 6 6 6 5 5 5 5 5 4 4 4 4 4 4 4 4 3 3 3 4 4 3 3 3 3 3 3 3 3 2 2 2 2 2 2 2 2 2 2 2 2 2 1 1 1 0 -0 -1 -1 -1 -1 -2 -2 -2 -2 -2 -2 -2 -3 -3
9 8 8 7 7 7 6 6 6 6 5 5 5 5 4 4 4 4 4 4 4 3 3 3 3 3 3 3 3 3 3 3 3 3 3 3 3 3 2 2 2 1 1 2 2 2 2 2 2 2 2 1 1 0 -0 -0 -1 -1 -1 -2 -2 -2 -2 -2 -2 -3 -3 -3 -3
8 8 8 7 7 6 6 6 6 5 5 5 4 4 4 4 3 3 3 3 3 3 3 3 3 3 3 3 2 2 3 3 3 3 3 3 2 2 2 1 1 1 1 1 1 2 2 2 2 2 1 1 0 0 -0 -1 -1 -1 -2 -2 -2 -2 -2 -3 -3 -3 -3 -3 -3
8 8 7 7 7 6 6 6 5 5 5 4 4 4 3 3 3 3 3 3 3 3 2 2 2 2 2 2 2 2 2 2 2 2 2 2 2 2 2 1 1 1 1 1 1 1 1 1 1 1 1 1 0 -0 -1 -1 -1 -2 -2 -2 -2 -3 -3 -3 -3 -3 -3 -3 -3
8 7 7 7 6 6 6 5 5 5 4 4 3 3 3 3 3 2 2 2 2 2 2 2 2 2 2 2 2 2 2 2 2 2 2 2 2 2 1 1 1 0 1 1 1 1 1 1 1 1 1 1 0 -0 -1 -1 -2 -2 -2 -3 -3 -3 -3 -3 -3 -2 -2 -2 -2
7 7 7 6 6 6 5 5 5 4 4 3 3 3 2 2 2 2 2 2 2 2 2 2 2 2 2 2 2 2 2 2 2 2 2 1 1 1 1 1 0 0 0 0 1 1 1 1 1 1 1 1 0 -0 -1 -1 -2 -2 -2 -3 -3 -3 -2 -2 -2 -2 -2 -2 -2
7 7 6 6 6 5 5 5 4 4 3 3 3 2 2 2 2 1 1 1 1 1 1 1 1 1 1 1 1 1 1 1 1 1 1 1 1 1 1 1 0 -0 -0 -0 0 0 0 0 1 1 1 0 0 -0 -1 -1 -2 -2 -2 -3 -3 -2 -2 -2 -2 -2 -2 -2 -2
Height
739 741 742 744 745 747 748 750 751 752 753 755 756 757 759 761 762 764 765 766 767 767 769 770 772 774 776 777 779 780 781 782 783 784 785 786 788 789 790 792 793 794 795 796 797 798 799 800 800 801 802 802 803 804 804 804 804 806 807 808 809 809 809 809 809 810 810 811 811
738 740 741 743 744 746 747 749 750 752 753 754 755 757 758 760 762 763 764 765 766 767 768 769 771 773 775 777 778 780 781 782 782 784 785 786 787 788 790 791 792 793 794 795 796 797 798 799 799 800 801 802 803 803 803 803 804 805 806 807 808 808 808 809 809 809 810 810 811
737 739 740 742 743 745 747 748 749 750 752 753 755 756 758 759 761 762 763 764 765 766 767 769 770 772 774 776 778 779 780 781 782 784 785 786 787 788 789 790 791 792 794 795 796 797 797 798 799 799 801 802 802 802 802 803 804 805 806 806 807 807 807 808 809 809 810 810 810
736 737 739 741 742 743 745 746 748 749 751 752 754 756 758 759 761 762 762 763 765 766 767 768 770 771 773 775 777 779 780 781 782 783 784 785 786 787 788 790 791 792 793 794 795 796 797 798 798 799 800 801 802 802 802 803 804 805 806 806 806 807 807 808 808 809 809 809 810
735 736 737 739 740 742 744 745 747 749 750 752 754 756 757 759 760 761 762 763 764 765 767 768 769 771 773 775 777 778 779 781 782 783 784 784 785 787 788 790 791 792 793 794 795 796 797 797 798 799 799 800 801 801 802 803 804 805 806 806 806 807 807 807 808 809 809 809 809
733 735 737 738 740 742 743 745 747 748 750 752 753 755 757 758 760 761 762 763 764 765 767 768 769 771 773 775 776 777 779 780 781 782 783 784 785 786 787 789 790 791 792 793 794 795 796 797 797 798 799 800 801 802 802 803 804 805 806 806 806 806 807 807 808 808 809 809 809
732 734 736 738 740 742 743 745 746 748 749 751 752 754 756 757 759 760 761 762 764 765 767 768 770 771 772 774 776 777 778 779 781 782 783 783 784 786 787 788 790 791 792 793 794 795 796 797 797 798 799 800 801 802 803 803 804 805 805 806 806 807 807 807 808 808 809 809 809
732 733 735 737 739 741 742 744 746 747 749 750 752 753 755 756 758 759 761 762 763 765 767 768 769 771 772 774 775 777 778 779 780 781 782 783 784 785 787 788 790 791 792 793 794 795 796 797 797 798 799 800 801 802 802 803 804 805 805 806 806 807 807 807 807 808 808 809 810
731 733 735 737 738 740 742 743 745 747 748 750 751 753 754 756 757 759 761 762 763 765 767 768 769 771 772 773 775 776 777 778 780 781 782 783 784 785 787 788 790 791 792 793 794 795 796 797 797 798 799 800 801 802 802 803 804 804 805 805 806 807 807 807 808 808 809 810 811
730 732 734 736 738 740 742 743 745 747 748 749 751 753 754 756 757 759 760 762 763 765 767 768 769 771 772 773 775 776 777 778 779 781 782 783 784 785 787 788 789 791 792 793 794 795 796 797 797 798 799 800 801 802 802 803 803 804 805 806 806 807 807 808 808 809 810 811 811
729 732 733 736 737 739 741 743 745 747 748 750 751 752 754 756 757 759 760 762 764 765 767 768 769 771 772 773 774 776 777 778 779 780 782 783 784 786 787 788 789 790 792 793 794 795 796 797 797 798 799 800 801 802 802 803 803 804 805 806 807 807 808 809 810 810 811 811 811
729 731 733 735 737 739 741 743 745 747 748 750 751 752 754 756 757 759 760 762 764 765 767 768 769 771 772 773 774 775 777 778 779 781 782 783 785 786 787 788 789 790 792 793 794 795 796 797 797 798 799 800 801 802 802 803 804 804 805 807 807 808 809 810 811 811 811 811 811
729 731 733 735 737 739 741 743 745 747 748 750 751 753 754 756 757 759 760 762 764 765 767 768 770 771 772 773 774 775 777 778 779 781 782 784 785 786 787 788 789 791 792 793 794 795 796 797 797 798 799 800 801 802 803 803 804 805 806 807 808 809 810 810 811 811 811 812 812
729 731 733 735 737 739 741 743 745 747 748 750 752 753 754 756 757 759 761 762 764 765 767 768 770 771 772 773 774 775 777 778 780 781 782 784 785 786 787 788 789 791 792 793 794 795 796 797 798 798 799 800 802 802 803 804 805 806 807 808 808 809 810 811 811 812 812 812 812
729 731 733 735 737 739 741 743 745 747 748 750 752 753 754 756 757 759 761 762 764 765 767 768 769 771 772 773 774 776 777 778 780 781 782 783 785 786 787 788 790 791 792 793 795 796 797 797 798 799 800 801 802 803 804 805 805 807 807 808 809 810 811 811 812 812 812 812 813
729 731 733 735 737 739 741 743 745 747 748 750 752 753 755 757 758 759 761 762 763 765 766 767 769 771 772 773 775 776 777 778 780 781 782 784 785 787 788 789 790 792 792 794 795 796 797 798 798 799 800 801 802 803 804 805 806 807 808 809 810 810 811 811 812 812 813 813 813
729 731 733 735 737 739 741 743 745 747 748 750 752 753 755 757 758 759 760 762 763 764 766 767 769 771 772 774 775 776 777 779 780 781 782 784 786 787 788 789 791 792 793 794 795 796 797 798 799 800 801 802 803 804 805 806 807 808 809 810 810 811 811 812 812 813 813 814 814
729 731 733 735 737 739 741 743 745 747 748 750 752 754 755 756 757 759 760 762 763 764 766 767 769 771 772 773 775 777 777 779 780 782 783 785 786 787 789 790 791 792 793 794 795 797 798 799 800 801 802 802 803 805 806 807 808 809 809 810 811 812 812 813 813 814 814 814 815
729 731 733 735 737 739 741 743 745 747 748 750 752 753 755 756 757 759 761 762 763 764 766 767 769 771 772 774 775 777 778 779 781 782 784 785 787 788 789 790 791 792 793 795 796 797 798 799 800 801 802 803 804 805 807 807 808 809 810 811 812 812 813 814 814 815 815 815 816
729 731 733 736 738 739 741 743 745 747 748 750 752 753 755 757 758 759 761 762 763 764 766 767 769 771 773 774 776 777 778 780 781 782 784 786 787 788 789 791 792 793 794 795 796 797 799 800 801 802 803 804 805 806 807 808 809 810 810 811 812 813 814 814 815 815 816 816 817
729 732 734 736 738 739 741 742 744 746 748 750 752 754 755 757 758 760 761 762 764 765 766 768 770 772 773 774 776 777 779 780 782 783 785 786 787 789 790 791 792 793 795 796 797 798 799 801 802 802 803 804 805 806 807 808 809 810 811 812 813 814 814 815 815 816 817 817 818
730 732 734 736 737 739 740 742 744 746 748 751 752 754 756 757 759 760 762 763 764 766 767 769 770 772 773 774 776 777 779 780 782 783 785 786 788 789 790 792 793 794 795 797 798 799 800 801 802 803 804 805 806 807 807 808 809 810 811 812 813 814 815 815 816 817 817 818 819
730 732 733 735 737 738 740 742 745 747 749 751 753 755 756 758 759 761 762 763 765 767 768 770 771 772 773 775 776 777 778 780 782 784 786 787 788 790 791 792 793 795 796 797 798 799 800 802 803 804 805 805 807 807 808 809 810 811 812 812 813 814 815 816 817 817 818 819 819
729 731 733 735 737 738 741 743 745 747 750 752 753 755 756 758 760 761 762 764 766 767 769 771 772 773 774 775 776 777 779 781 782 784 786 787 789 790 792 793 795 796 797 798 799 800 801 802 803 804 805 806 807 808 809 810 811 811 812 813 814 815 816 817 817 818 819 819 820
729 731 733 735 737 739 741 743 746 748 750 752 753 755 757 758 760 762 763 765 766 768 770 771 772 773 775 776 777 778 780 781 783 785 787 788 790 792 793 795 796 797 799 800 801 802 802 803 804 805 806 807 808 809 810 811 812 812 813 814 814 815 817 817 818 819 820 820 821
729 731 733 736 738 740 742 744 746 748 750 752 754 756 757 759 761 762 764 765 767 769 771 772 773 774 775 777 778 779 781 783 784 786 787 789 791 793 794 796 797 799 800 802 802 803 804 805 805 806 807 808 809 810 811 812 813 813 814 815 816 816 817 818 819 820 821 821 822
730 732 734 736 738 741 743 745 747 749 751 753 755 756 758 760 762 763 764 766 768 770 772 773 774 775 777 778 779 781 782 784 786 788 789 791 792 793 795 797 798 800 802 803 804 804 805 806 807 807 807 808 809 810 811 812 813 814 815 816 817 817 818 819 820 821 822 822 822
731 733 735 737 739 742 744 746 748 750 752 754 755 757 759 761 762 764 765 767 769 771 772 774 775 776 777 779 781 782 784 786 788 789 791 792 793 794 796 798 800 802 803 804 805 806 806 807 808 808 809 809 810 811 812 813 814 815 816 817 818 819 820 820 821 822 822 822 822
731 733 736 738 740 743 745 747 749 751 753 755 756 758 760 762 763 765 767 768 770 772 773 774 776 777 779 781 782 784 786 787 789 791 792 793 794 796 797 799 801 803 805 805 806 807 807 808 809 810 810 810 811 812 813 814 815 816 817 818 819 820 821 822 822 822 823 823 823
732 734 736 739 741 744 746 748 750 752 754 756 757 759 761 763 764 766 768 769 771 772 774 775 777 778 780 782 783 785 787 789 791 792 793 794 795 797 799 801 803 805 806 807 807 808 809 809 810 811 811 812 812 813 814 815 816 817 818 819 820 821 822 822 823 823 823 824 824
732 735 737 740 742 745 747 749 751 753 755 757 759 760 762 764 766 767 769 770 772 773 775 776 777 780 782 783 785 787 788 790 792 793 794 795 797 799 801 803 804 806 807 808 808 809 810 810 811 812 812 812 813 814 815 816 817 818 819 821 822 822 823 823 824 824 824 824 824
733 735 738 741 743 746 748 750 752 755 757 758 760 761 763 765 767 768 770 771 772 774 776 777 779 781 783 785 787 788 790 791 793 794 795 796 798 800 802 804 806 807 808 809 810 810 811 811 812 812 813 814 814 815 816 817 818 819 821 822 823 823 824 824 825 825 825 825 825
734 736 739 742 744 747 749 752 754 756 758 759 761 762 763 766 767 769 771 772 774 776 777 779 781 782 784 786 787 789 791 792 794 795 797 798 799 801 803 805 807 809 810 810 811 811 812 812 813 814 814 815 816 816 817 818 819 821 822 823 824 824 825 825 825 826 826 826 826
734 737 739 742 745 748 750 753 755 757 759 760 762 763 765 766 768 770 772 774 776 777 779 781 782 784 785 787 788 790 792 793 795 797 798 799 801 802 804 807 809 810 811 812 812 812 813 813 814 815 815 816 817 817 818 819 821 822 823 824 824 825 825 826 826 827 827 827 827
734 737 740 743 746 748 751 754 756 758 759 761 763 764 766 767 769 771 773 775 777 779 781 782 784 785 787 788 790 791 792 794 797 798 799 801 802 803 805 807 810 811 812 812 813 813 814 814 815 815 816 817 817 818 819 820 822 822 823 824 825 826 826 827 827 827 828 828 828
735 737 740 743 746 749 752 755 757 758 760 762 763 765 767 769 770 772 774 776 777 779 782 784 785 787 788 790 792 793 794 796 797 799 801 802 803 804 806 808 811 812 813 813 814 814 815 815 816 816 817 817 818 819 821 821 822 823 824 825 826 827 827 828 828 829 829 829 829
735 737 741 744 747 750 752 755 757 759 760 762 764 766 768 770 772 774 776 777 778 780 782 785 786 788 789 791 793 795 797 797 799 800 802 803 804 805 807 809 811 813 814 814 815 815 816 816 817 817 818 818 819 820 821 822 823 824 825 826 827 827 828 829 829 830 830 830 831
736 738 741 744 747 750 753 755 757 759 761 763 765 767 769 771 773 776 777 778 779 781 783 785 787 789 791 792 794 797 798 800 800 802 803 804 805 806 807 809 812 813 815 815 816 816 817 817 818 819 819 820 820 821 822 823 824 825 826 827 827 828 829 830 830 831 831 832 832
738 740 742 745 747 751 753 756 758 760 762 764 766 768 770 772 775 777 779 780 781 782 783 786 788 791 792 794 796 798 800 802 802 803 804 806 807 807 808 810 812 814 815 816 817 817 818 818 819 820 821 821 822 822 823 823 824 825 827 827 828 829 830 831 831 831 832 832 833
739 741 743 745 748 751 754 757 759 761 762 764 767 769 772 773 776 779 781 782 783 784 785 787 790 792 794 796 797 799 801 803 804 805 806 807 809 809 810 811 812 814 816 817 817 818 819 820 821 821 822 822 822 823 824 824 825 826 827 829 829 830 831 832 832 832 832 833 833
741 743 745 747 749 752 755 758 760 762 764 765 768 770 772 775 777 779 782 784 785 786 787 789 791 793 796 797 798 800 802 804 806 807 808 809 810 811 812 812 813 815 817 818 819 819 820 821 822 822 823 823 824 824 825 825 826 827 828 830 830 831 832 832 832 833 833 833 834
Wind_Speed
29 29 28 28 27 27 26 25 25 24 24 25 25 25 25 25 24 24 24 24 24 24 25 25 25 25 24 24 22 21 21 21 21 22 23 24 24 24 23 23 23 23 23 23 22 21 21 20 19 18 17 16 16 17 16 15 13 12 12 14 14 13 12 9 8 7 7 6 6
30 29 29 28 27 27 26 25 24 24 24 25 26 26 26 26 25 24 24 25 25 25 25 25 25 25 25 24 22 21 20 20 21 22 22 24 25 25 24 24 23 24 24 23 23 22 21 20 19 17 16 15 16 15 14 13 12 12 13 15 14 13 10 8 7 6 6 5 4
30 30 29 28 27 27 26 25 25 25 25 25 25 25 25 25 25 24 24 25 25 25 25 25 25 25 25 25 23 21 20 20 21 21 22 23 24 25 25 24 24 24 24 23 22 20 19 19 18 17 16 16 16 15 13 12 12 13 14 14 13 11 9 8 6 5 4 3 2
30 30 29 29 29 28 27 26 25 25 25 25 25 25 25 25 24 24 24 25 25 24 24 24 24 25 25 25 24 22 21 21 21 22 23 24 24 24 24 23 23 23 22 21 19 18 17 17 17 17 17 17 16 14 13 12 12 13 13 13 11 10 8 7 5 4 3 2 1
31 31 30 30 30 29 28 27 26 26 25 25 25 25 25 25 24 23 23 24 24 24 24 24 24 24 24 24 24 23 21 21 21 22 23 23 23 23 22 22 22 21 20 19 18 17 16 16 16 16 17 16 14 13 12 12 12 12 12 10 9 8 6 5 3 2 1 1 1
31 31 30 29 29 29 28 26 26 26 26 25 25 25 25 24 24 23 23 24 24 24 23 22 22 22 23 23 24 23 22 21 21 21 22 22 22 21 21 21 21 20 19 18 17 17 17 16 16 16 15 14 13 12 11 12 12 11 10 9 7 6 5 4 3 2 1 2 3
31 31 30 29 29 28 27 26 26 26 26 26 26 26 26 25 24 24 24 24 23 23 22 21 21 21 22 23 23 23 22 21 21 21 21 21 21 21 21 21 20 20 19 19 18 18 17 17 16 15 14 13 13 12 11 10 10 9 8 8 7 6 5 5 4 3 3 3 5
30 30 30 29 29 28 28 27 26 26 26 26 27 27 27 26 26 25 24 22 22 22 21 20 20 21 22 23 23 23 22 22 21 20 20 21 21 21 21 21 21 20 20 20 19 19 18 16 16 15 14 14 13 12 11 9 9 8 8 9 8 7 6 6 5 4 5 6 8
29 30 29 29 29 29 28 27 27 27 27 27 27 27 27 27 26 24 23 21 21 21 21 20 20 21 21 22 23 23 22 22 21 21 21 21 22 22 22 22 21 21 21 20 20 19 17 16 15 15 14 14 13 12 11 9 9 9 9 10 9 9 8 7 7 7 8 10 12
29 29 29 29 29 29 28 27 27 27 27 28 28 28 27 27 25 24 22 21 21 21 21 21 20 21 21 22 22 22 22 22 22 22 22 22 23 22 22 22 22 22 21 20 19 18 17 16 15 15 14 14 13 13 11 10 9 10 10 11 11 11 11 10 10 11 12 13 14
30 29 29 29 29 29 28 27 27 27 27 28 28 28 27 26 24 23 22 21 21 21 21 21 21 21 21 22 22 22 23 23 23 23 23 23 23 23 23 23 23 22 21 20 19 17 16 15 15 15 14 13 13 12 11 10 10 11 13 13 13 14 14 13 12 12 13 14 14
29 29 29 29 29 29 28 28 28 27 28 28 28 27 26 24 23 22 22 21 21 21 21 20 21 21 21 22 22 23 23 24 24 24 23 23 23 23 23 23 22 22 21 19 18 17 16 15 15 15 14 13 12 12 12 12 12 14 15 15 14 14 15 14 13 13 13 13 13
29 29 29 29 29 29 28 28 28 28 28 28 27 25 24 23 23 22 22 21 21 21 21 20 20 21 22 22 23 24 24 24 24 24 24 24 24 23 23 22 22 21 20 18 17 16 16 16 15 15 14 14 14 14 14 14 14 15 16 15 14 14 14 13 13 13 12 12 12
29 29 29 29 29 29 28 28 27 27 27 26 25 24 23 23 23 23 22 22 21 21 20 20 21 22 23 23 24 24 25 25 25 24 24 25 24 24 23 22 21 20 19 18 16 16 16 16 16 15 15 16 16 16 15 15 15 15 15 15 14 14 14 14 13 13 12 13 12
29 29 29 30 29 29 28 27 26 25 25 25 24 23 23 23 23 23 22 22 22 22 22 22 22 23 23 24 24 25 25 25 26 26 25 25 24 24 23 22 21 20 19 18 17 17 17 17 17 17 17 18 18 18 17 16 15 15 14 14 14 15 15 14 13 13 13 13 13
29 29 30 30 29 28 27 26 24 24 24 24 24 23 23 23 23 23 23 24 23 23 24 24 24 24 25 25 25 26 26 26 26 26 26 26 25 24 23 23 22 21 20 20 20 19 19 19 19 19 19 20 20 19 17 16 15 14 14 14 14 15 15 15 14 13 13 13 14
30 30 30 30 29 28 27 25 23 23 24 24 24 24 24 24 24 25 25 26 26 26 26 26 26 26 26 26 26 27 27 27 27 27 27 26 25 24 24 23 23 22 22 21 21 20 20 20 20 21 21 21 20 18 17 16 15 15 15 15 16 16 16 16 15 15 15 16 16
30 30 30 30 29 28 27 25 24 24 25 25 25 25 25 25 26 26 27 27 28 28 28 28 28 28 28 28 28 28 28 28 28 27 27 26 26 25 25 24 24 23 23 22 21 21 21 22 22 22 21 20 19 18 17 16 16 17 17 18 18 18 18 17 17 17 17 18 17
31 30 30 30 29 28 27 26 26 26 26 27 27 27 27 28 28 29 28 29 29 30 30 29 29 29 29 29 28 28 29 29 28 28 27 27 26 26 26 25 25 24 23 23 23 22 23 23 22 21 20 19 19 18 18 18 19 19 19 19 20 20 19 19 19 19 19 18 18
31 30 30 29 29 28 27 27 27 28 28 28 29 29 29 29 30 30 30 30 30 31 31 31 30 30 30 29 29 28 28 28 29 28 28 27 27 27 26 26 25 25 24 24 24 24 23 23 22 20 20 19 19 20 20 20 21 21 21 22 22 22 22 21 21 20 20 19 18
31 30 30 29 28 28 28 29 29 30 30 30 31 30 30 30 31 31 31 31 31 31 31 32 31 31 30 30 29 29 28 29 29 29 29 28 28 27 27 26 26 25 25 25 24 24 23 22 21 20 20 20 21 21 22 22 23 23 24 24 24 24 23 22 22 21 20 19 18
30 30 29 29 29 29 30 31 32 32 32 32 32 32 32 31 31 32 32 32 32 32 32 32 31 31 31 31 31 31 30 30 30 30 29 29 29 28 27 26 25 25 25 25 24 23 23 22 21 20 21 21 22 22 23 24 25 25 26 26 25 25 24 22 21 20 19 18 17
30 30 30 30 31 32 33 33 34 34 34 34 33 33 33 32 32 32 32 32 32 32 32 31 31 32 32 32 33 32 32 31 31 30 30 29 29 27 26 25 24 24 24 24 23 22 22 22 21 21 22 23 24 24 25 25 26 27 27 26 25 24 23 22 21 19 18 17 17
30 31 31 32 33 34 35 35 35 35 35 34 34 34 34 33 33 33 33 32 32 32 32 31 32 32 33 33 33 33 32 32 31 30 29 28 28 26 25 24 23 23 22 22 21 21 21 22 23 23 24 24 25 26 26 26 26 26 26 26 25 23 22 21 19 18 16 15 15
32 33 34 34 35 35 36 36 36 35 35 35 35 35 34 34 33 33 33 32 32 32 32 32 32 33 33 33 33 32 32 31 30 30 29 28 27 26 25 24 23 22 22 21 20 20 21 22 23 24 25 26 26 26 26 26 26 26 25 24 23 22 21 19 17 15 14 13 12
34 34 35 36 36 36 36 36 36 36 36 35 35 35 34 34 33 33 33 33 32 32 32 32 32 32 32 32 32 31 30 30 29 29 29 28 27 27 26 25 24 23 23 22 22 22 22 23 23 24 25 26 27 27 27 26 25 24 23 23 21 20 19 17 16 14 12 11 11
35 35 36 37 37 37 36 36 36 36 36 35 35 35 34 33 33 33 33 33 33 32 32 31 31 31 31 31 31 31 30 29 29 29 29 29 29 28 27 26 25 25 24 24 23 23 24 24 24 25 25 26 27 27 26 25 24 23 22 21 20 18 17 16 15 14 12 11 11
36 36 37 37 37 36 36 36 36 35 35 35 34 34 34 33 33 33 34 34 33 32 31 31 31 31 30 30 31 31 31 30 30 30 29 29 29 29 28 27 26 26 25 24 24 24 25 25 25 25 25 26 26 26 25 25 23 22 21 20 18 17 16 15 14 13 12 12 11
36 37 37 37 36 36 36 35 35 34 34 34 34 34 33 34 34 33 34 34 33 32 31 30 30 30 30 30 31 31 31 31 30 30 30 30 30 29 29 28 27 26 25 24 25 25 25 25 25 25 25 25 25 25 25 24 23 22 20 19 18 17 16 15 14 13 13 12 13
37 37 37 37 36 35 34 34 34 34 34 33 34 34 34 33 33 33 33 33 32 31 31 30 30 30 31 31 32 31 31 31 30 30 31 31 31 30 29 28 27 26 25 24 25 25 25 25 25 25 24 24 24 24 24 23 22 21 20 19 18 16 16 15 14 13 13 13 13
37 37 37 36 35 34 33 34 34 34 33 33 33 33 33 32 32 32 32 32 32 31 31 31 32 32 31 32 31 31 31 31 31 30 31 31 31 30 29 28 27 26 25 24 24 25 25 25 24 24 24 23 24 24 24 23 22 21 20 19 18 17 16 15 15 14 14 14 14
36 36 36 35 34 33 33 33 33 33 33 32 32 32 32 32 32 32 32 32 32 32 32 32 32 32 31 31 32 32 32 31 31 31 31 32 32 31 30 28 27 26 24 24 24 24 24 24 24 24 23 23 24 24 23 23 22 21 20 19 18 17 16 16 16 15 15 15 15
36 36 36 35 34 33 33 33 33 33 32 32 32 33 33 32 32 32 32 32 32 32 32 32 33 33 33 33 33 33 32 32 31 31 32 32 32 31 30 28 26 25 24 24 24 24 24 24 24 24 24 24 24 24 23 22 22 21 21 20 19 18 17 16 16 16 15 15 16
37 36 36 35 34 33 33 32 32 32 32 32 32 33 33 33 32 32 31 31 31 31 32 32 32 33 33 33 33 33 33 32 32 32 32 32 32 31 30 28 26 24 23 23 23 24 24 24 24 24 24 23 23 23 23 22 22 22 21 21 19 18 17 16 16 15 15 15 16
37 37 36 35 34 33 33 32 31 32 32 32 32 32 33 33 33 32 32 32 32 31 32 32 32 32 32 32 33 33 33 33 33 32 32 32 31 31 30 28 26 24 23 23 23 23 23 23 23 23 23 23 23 23 22 23 23 23 22 21 20 19 18 17 16 16 15 15 15
38 37 36 35 34 33 33 32 31 32 33 33 33 32 32 32 32 32 32 33 34 33 33 32 32 32 32 32 32 32 33 34 33 32 32 31 31 31 30 28 26 24 23 22 23 23 23 22 22 22 22 22 23 23 23 23 23 23 22 22 21 20 19 18 17 17 16 16 16
38 38 37 36 35 34 33 32 32 33 33 33 33 33 33 32 32 31 32 34 35 34 33 33 32 33 33 33 32 32 33 33 33 33 32 31 31 31 31 29 26 24 22 22 22 22 22 21 21 21 21 22 23 23 23 24 24 23 23 22 22 21 20 19 18 17 17 16 16
38 38 37 36 35 34 33 33 33 33 33 33 32 32 33 33 31 30 31 33 35 35 34 33 33 33 34 34 34 33 32 32 33 33 32 31 31 31 30 29 26 24 22 21 21 21 21 20 20 19 20 21 22 23 23 24 24 24 23 22 22 21 20 19 18 17 16 15 14
37 38 37 36 35 34 34 33 33 34 34 33 32 32 32 32 30 30 30 32 34 35 35 34 34 34 34 34 34 33 32 32 31 32 31 31 30 29 29 28 26 24 22 21 20 20 20 20 19 19 19 20 22 23 23 24 24 24 23 22 21 20 19 18 18 17 16 15 13
37 37 37 37 36 35 34 33 33 33 34 34 33 32 32 32 31 30 30 31 33 35 36 36 35 35 34 34 34 34 33 31 30 30 30 29 28 27 27 27 26 24 22 21 20 20 20 20 19 19 19 20 21 22 23 24 24 24 23 22 21 20 19 18 18 17 16 15 14
36 36 37 37 37 36 35 34 32 33 33 34 34 33 32 32 32 31 31 31 32 33 34 35 35 35 34 33 34 34 33 32 30 29 28 28 27 26 26 26 26 24 23 21 20 20 20 19 19 19 19 19 20 21 22 23 24 24 23 22 21 21 20 19 18 17 16 16 15
Wind_Direction
193 192 192 192 192 191 192 193 194 193 191 189 189 189 191 192 195 198 200 202 203 205 206 207 207 206 205 204 203 202 201 200 200 200 201 203 207 210 213 216 217 218 218 219 220 220 218 215 213 212 215 220 225 225 221 214 210 210 212 211 209 210 211 206 198 192 192 197 210
193 192 192 192 192 192 192 192 193 193 192 191 190 191 192 193 195 198 201 202 205 206 206 206 206 205 204 202 202 202 201 200 199 199 200 202 205 208 211 214 215 216 216 216 216 213 210 208 207 208 211 214 215 209 201 197 197 200 201 201 201 201 199 191 186 187 195 207 224
193 192 192 191 191 191 191 191 192 191 191 191 192 193 194 194 197 199 201 203 205 206 206 204 205 204 203 201 201 201 201 199 198 197 199 201 203 205 208 210 212 212 211 210 208 204 202 202 205 206 208 208 204 194 185 184 188 192 193 192 191 189 184 178 177 185 197 206 211
192 191 191 191 191 191 190 191 191 190 190 190 190 192 194 196 198 199 201 203 204 205 204 204 203 203 203 201 200 200 199 198 196 197 200 202 202 202 203 205 205 203 202 200 197 194 193 195 198 201 202 200 194 186 179 177 181 183 183 180 177 174 170 169 174 183 191 181 125
192 192 191 192 191 190 190 190 189 188 188 188 188 190 193 196 197 199 201 201 202 204 204 204 203 203 202 200 199 199 197 194 195 199 202 203 201 198 197 196 196 194 191 189 187 186 187 188 190 192 193 190 184 178 175 175 175 174 170 164 160 160 162 165 170 177 168 120 77
191 191 191 192 191 190 189 189 188 187 186 186 186 188 191 194 196 197 199 200 202 203 203 202 201 201 200 198 198 197 194 192 195 200 203 200 196 192 190 190 190 187 183 181 181 182 183 183 181 180 180 177 171 169 169 171 171 167 158 145 141 147 156 157 156 147 126 112 105
190 190 190 190 189 188 188 187 187 185 185 185 186 188 190 193 195 197 199 200 200 199 198 197 198 198 197 196 195 193 190 189 193 197 197 192 188 185 183 183 182 180 178 178 178 179 180 179 174 169 168 166 160 157 159 164 166 162 149 134 132 136 137 134 136 136 132 125 114
189 189 188 188 187 187 186 185 184 183 183 184 186 188 191 193 195 197 198 198 196 195 193 193 194 195 194 193 191 188 186 186 188 189 186 181 178 176 175 175 175 175 176 179 179 178 177 175 170 165 161 160 155 151 151 156 160 155 143 131 128 127 125 123 127 134 131 120 109
186 187 187 186 185 185 184 184 183 182 182 183 186 189 192 194 195 195 194 193 192 191 190 190 191 192 191 190 188 185 182 181 179 177 174 172 170 169 169 171 172 174 177 179 179 177 174 171 166 162 159 157 152 149 149 154 154 148 137 129 126 123 120 115 115 117 116 111 104
183 184 183 183 182 182 182 182 182 182 182 184 187 190 192 193 194 192 191 190 189 187 186 187 189 189 188 185 182 180 177 174 171 169 167 167 167 168 169 172 174 175 175 176 176 175 172 168 161 157 154 153 149 147 148 153 150 142 133 128 125 120 114 108 107 108 109 107 102
181 181 180 179 179 179 179 178 179 180 182 184 187 189 190 191 190 189 188 187 184 183 184 187 188 186 182 178 175 172 171 169 167 166 166 167 169 170 172 173 175 174 173 173 173 173 170 164 158 152 148 147 146 145 146 150 147 137 129 124 120 115 109 107 107 107 107 105 101
178 178 177 177 176 176 175 175 176 178 181 184 185 186 186 186 186 185 184 183 181 182 184 186 185 181 175 170 168 168 168 168 168 168 168 168 170 171 171 172 172 172 171 170 171 170 166 160 155 150 146 144 144 144 144 145 141 132 124 119 115 110 107 107 108 108 107 104 100
175 174 174 173 173 173 172 172 173 176 180 182 182 181 180 181 181 182 181 180 180 180 180 179 177 172 169 166 166 168 168 169 169 168 168 168 169 169 168 168 168 167 167 166 167 165 161 157 155 152 149 145 142 141 140 139 134 127 120 115 110 108 108 109 110 110 109 105 100
172 171 170 170 170 169 168 169 171 174 177 178 177 175 174 175 177 178 177 175 174 172 169 167 166 166 167 168 169 169 169 169 168 167 166 166 167 166 165 164 164 163 162 161 162 161 159 157 156 155 151 145 140 138 137 134 129 123 117 113 111 110 112 113 114 113 109 104 100
168 168 167 167 166 165 165 166 168 171 172 171 170 168 168 169 170 170 168 166 163 161 160 158 159 162 166 168 169 169 168 167 167 166 164 164 164 164 163 162 162 161 159 157 157 158 158 156 155 154 150 144 139 136 133 130 126 121 117 115 114 115 115 114 113 110 106 103 101
165 165 164 163 163 163 163 164 165 166 165 164 163 162 161 160 160 160 158 156 154 154 155 155 155 158 161 165 167 167 166 166 165 164 163 162 162 163 162 161 160 159 158 156 155 154 155 153 152 149 146 141 137 134 132 128 125 121 118 116 115 113 111 109 107 105 103 102 100
162 162 162 162 162 162 161 161 160 159 158 156 156 156 155 153 152 152 152 151 152 152 153 154 155 156 158 160 163 164 164 163 162 162 161 161 161 161 161 160 159 159 158 156 154 152 151 148 146 144 142 138 135 133 130 127 122 118 114 110 107 104 102 102 102 102 102 100 99
160 160 160 161 160 159 158 156 154 153 151 150 150 150 150 148 147 148 149 152 154 154 152 153 155 157 157 157 158 160 160 158 158 158 159 159 160 159 159 158 157 157 156 155 153 151 148 144 142 140 138 135 132 129 126 121 115 111 107 104 102 100 100 101 102 103 101 100 98
159 159 159 159 158 156 154 152 149 148 147 146 147 147 146 146 147 148 149 152 155 155 154 153 154 155 156 155 154 154 155 155 154 155 155 156 157 156 155 154 154 154 154 153 151 149 145 143 141 139 136 132 128 124 120 116 112 109 107 106 105 105 105 105 105 103 101 99 96
157 157 157 157 156 153 150 147 145 144 144 145 145 145 145 146 148 149 149 150 154 156 156 154 153 152 152 152 150 148 148 150 150 150 151 151 151 151 151 151 151 151 150 148 146 144 142 141 139 137 133 129 125 122 120 118 116 115 113 112 111 111 110 109 107 104 101 97 93
156 156 155 154 152 148 145 143 143 143 143 143 144 144 145 146 148 149 149 150 152 153 153 153 151 150 149 148 146 143 142 143 144 144 145 145 145 146 147 148 147 146 145 144 142 141 140 139 137 134 131 128 126 125 124 123 122 120 119 117 116 115 113 112 110 106 103 100 96
154 153 152 149 146 144 142 141 142 142 143 143 144 144 145 146 146 147 148 149 149 149 149 148 148 147 147 146 144 141 139 139 140 140 141 141 141 142 144 145 145 144 142 141 141 141 140 138 135 133 131 129 128 128 128 127 126 124 122 121 119 118 117 116 114 111 108 105 102
151 149 146 144 142 141 141 141 142 142 142 143 143 143 143 143 143 144 145 145 145 145 144 144 144 145 146 146 145 143 141 139 139 139 140 140 140 140 141 143 143 142 141 142 142 141 139 136 134 133 132 131 131 130 130 129 128 126 125 124 123 121 120 119 118 116 113 109 105
146 143 142 140 140 140 140 140 141 141 141 141 142 142 141 140 140 141 141 141 142 142 141 141 141 141 142 143 143 143 143 141 139 138 138 138 138 138 139 140 140 140 140 141 141 141 139 136 134 133 133 133 132 131 131 130 129 128 127 126 125 123 121 121 120 118 115 110 105
141 140 138 138 138 138 139 140 140 140 140 140 140 140 139 138 138 138 138 138 139 139 139 138 137 137 138 139 140 142 142 141 139 137 136 135 136 136 136 136 135 135 135 136 137 138 137 137 135 135 134 133 132 132 131 130 130 129 129 128 125 123 120 117 116 114 110 105 100
138 137 136 137 137 138 138 139 139 139 139 139 139 138 137 137 137 137 136 136 136 136 136 135 134 134 134 135 136 137 137 137 137 136 135 134 134 133 132 131 131 131 132 133 134 135 136 136 137 137 136 135 134 132 131 130 130 130 129 127 125 123 119 114 110 105 101 95 91
136 135 135 136 137 136 137 137 138 138 137 137 137 136 136 136 136 135 134 133 132 132 131 130 130 130 131 132 132 132 132 132 134 134 134 134 132 130 129 128 128 129 130 132 134 135 135 136 137 137 137 136 135 133 132 130 130 130 128 126 124 121 117 112 107 102 97 91 86
134 134 134 135 135 135 135 136 135 135 135 135 135 135 135 135 134 132 131 130 130 129 127 126 126 127 128 128 128 129 130 130 131 131 132 131 129 127 126 125 125 127 130 133 134 135 136 136 137 137 137 136 135 134 132 131 130 128 126 123 121 117 113 109 105 100 94 88 83
134 134 134 133 133 133 133 133 132 132 133 133 134 134 133 132 131 130 129 128 128 126 125 124 125 126 125 125 126 127 128 128 129 129 129 127 126 124 123 124 124 127 130 133 134 135 135 136 137 137 137 136 134 134 132 131 129 126 123 120 117 113 109 105 101 96 91 85 81
133 133 132 131 131 131 131 131 131 131 131 131 132 131 130 129 128 128 128 127 126 126 126 126 126 124 124 124 125 125 125 126 127 127 126 125 123 122 122 123 124 126 130 133 134 135 136 137 137 138 138 137 135 133 132 130 127 124 120 116 113 110 107 103 99 94 90 85 81
132 132 131 130 129 128 129 130 131 130 130 129 129 128 127 126 126 127 127 127 126 126 127 127 125 124 123 125 125 124 124 125 125 125 125 123 122 122 122 123 124 126 129 132 134 135 136 137 138 139 138 137 135 132 130 128 124 120 117 114 111 109 106 102 99 94 90 86 81
132 131 129 128 127 127 128 129 129 129 129 128 127 126 125 125 125 126 126 127 127 126 125 125 124 123 123 124 124 124 124 125 125 125 125 124 123 123 123 123 124 126 128 131 133 135 136 138 139 139 138 135 132 130 127 124 120 117 114 112 110 108 106 104 101 97 92 87 81
131 130 129 127 126 127 128 128 129 129 128 127 126 125 124 124 123 123 124 125 125 124 124 124 124 124 124 124 124 124 124 124 125 125 125 125 125 124 123 122 123 125 128 131 133 135 136 137 138 137 135 133 131 128 125 121 117 114 112 111 109 108 106 105 102 99 95 91 86
131 130 129 127 127 127 127 128 128 128 127 125 124 124 124 123 122 121 121 122 123 123 124 124 124 125 125 126 125 125 124 125 126 126 126 126 126 125 123 122 123 125 129 131 134 135 136 137 137 136 134 132 130 127 123 119 116 113 111 110 108 107 105 103 101 98 96 93 89
132 130 129 128 128 128 128 128 127 127 125 124 123 123 123 123 122 122 122 123 123 123 123 123 124 124 124 125 126 126 126 126 126 126 127 127 127 124 122 122 123 126 129 132 133 135 137 137 137 136 134 132 128 125 121 117 114 111 110 108 105 103 101 99 96 94 91 89 87
133 132 130 129 129 128 128 128 127 125 124 122 122 122 122 122 122 123 124 125 125 123 121 121 122 122 122 122 123 125 126 126 127 127 127 128 126 124 122 122 123 125 129 132 134 136 137 138 139 138 136 132 128 124 121 116 113 111 109 106 103 100 97 95 92 89 86 84 82
134 133 131 130 129 129 128 128 126 124 123 122 122 122 122 121 122 123 125 127 125 123 122 122 121 121 121 122 122 124 126 128 128 127 127 127 126 124 123 122 123 125 128 132 135 137 138 139 139 139 137 132 128 125 121 118 115 112 109 106 103 100 96 94 91 88 85 82 81
135 134 132 131 130 129 129 128 126 124 123 122 122 122 122 122 122 123 125 127 125 123 122 122 121 121 122 124 124 125 126 127 128 127 127 126 126 126 125 124 124 126 129 132 135 137 138 138 139 139 137 133 130 126 123 119 116 113 110 108 105 103 100 97 95 92 88 85 82
134 134 133 131 130 129 128 127 126 125 124 123 122 122 122 122 122 123 125 126 126 125 123 122 121 122 123 124 124 124 124 126 127 127 126 126 126 127 126 125 125 126 129 132 134 136 137 138 138 138 137 134 131 128 124 121 118 115 113 111 110 108 106 103 100 98 95 91 85
134 133 133 131 130 129 128 127 126 126 126 125 124 123 122 123 123 124 124 124 124 124 123 122 121 122 123 124 123 123 122 123 124 125 125 125 125 126 126 125 125 126 128 131 133 134 136 137 138 138 137 134 131 129 126 123 120 118 116 116 114 113 110 107 104 101 98 94 89
133 133 132 131 130 129 128 127 126 126 126 126 125 125 125 124 124 124 123 122 122 121 121 121 122 122 123 123 122 122 121 121 122 123 124 124 124 124 124 124 124 125 127 129 131 133 134 136 136 136 134 132 130 128 126 124 122 120 119 118 117 115 112 108 104 100 96 93 90